This is the latest recevied weather packets stored in our database for station/object KB2FWP. If no packets are shown the sender has not sent any weather packets the latest 1 day(s).
| Time | Temp. | Humidity | Pressure | Rain* | Wind** | Luminosity | Snow |
|---|---|---|---|---|---|---|---|
| 1778035504 | 13.89° C | 86% | 1013 hPa | 0 mm | 6.26 m/s, 174° | - | - |
| 1778034602 | 13.89° C | 86% | 1012.9 hPa | 0 mm | 5.36 m/s, 195° | - | - |
| 1778033702 | 13.89° C | 87% | 1013.1 hPa | 0 mm | 5.36 m/s, 194° | - | - |
| 1778032860 | 13.89° C | 86% | 1012.9 hPa | 0 mm | 4.92 m/s, 237° | - | - |
| 1778031962 | 14.44° C | 85% | 1012.9 hPa | 0 mm | 6.71 m/s, 179° | - | - |
| 1778031061 | 14.44° C | 84% | 1012.7 hPa | 0 mm | 6.71 m/s, 198° | - | - |
| 1778030159 | 14.44° C | 84% | 1012.6 hPa | 0 mm | 7.6 m/s, 192° | - | - |
| 1778029259 | 15° C | 83% | 1012.6 hPa | 0 mm | 6.26 m/s, 189° | - | - |
| 1778028385 | 15° C | 82% | 1012.5 hPa | 0 mm | 6.26 m/s, 206° | - | - |
| 1778027456 | 15° C | 82% | 1012.4 hPa | 0 mm | 7.15 m/s, 184° | - | - |
| 1778026553 | 15.56° C | 81% | 1012.1 hPa | 0 mm | 7.6 m/s, 232° | - | - |
| 1778025653 | 15° C | 82% | 1011.9 hPa | 0 mm | 7.6 m/s, 200° | - | - |
| 1778024772 | 15° C | 82% | 1011.5 hPa | 0 mm | 7.15 m/s, 185° | - | - |
| 1778023851 | 15.56° C | 82% | 1011.3 hPa | 0 mm | 7.6 m/s, 186° | - | - |
| 1778022951 | 15° C | 82% | 1011.2 hPa | 0 mm | 7.6 m/s, 225° | - | - |
| 1778022052 | 15.56° C | 82% | 1010.9 hPa | 0 mm | 6.71 m/s, 202° | - | - |
| 1778021150 | 15.56° C | 81% | 1010.8 hPa | 0 mm | 7.15 m/s, 191° | - | - |
| 1778020260 | 15.56° C | 82% | 1010.7 hPa | 0 mm | 8.49 m/s, 185° | - | - |
| 1778019358 | 15.56° C | 81% | 1010.8 hPa | 0 mm | 5.81 m/s, 179° | - | - |
| 1778018457 | 15.56° C | 80% | 1010.6 hPa | 0 mm | 7.15 m/s, 206° | - | - |
| 1778017563 | 15.56° C | 80% | 1010.6 hPa | 0 mm | 7.6 m/s, 203° | - | - |
| 1778016647 | 16.11° C | 80% | 1010.4 hPa | 0 mm | 6.71 m/s, 201° | - | - |
| 1778015744 | 16.11° C | 80% | 1010.2 hPa | 0 mm | 6.71 m/s, 218° | - | - |
| 1778014844 | 15.56° C | 80% | 1010.2 hPa | 0 mm | 8.05 m/s, 200° | - | - |
| 1778013944 | 15.56° C | 81% | 1010.2 hPa | 0 mm | 6.71 m/s, 186° | - | - |
* Rain latest hour (hover to see other rain measurements)
** Current wind speed in m/s (hover to see current wind gust speed)